Location: Columbia
(38.9520°N, 92.3340°W)
Time: 13:00:50
(UTC-05:00)

Iridium 22 - Visible Passes

Search period start: 20 September 2014 00:00
Search period end: 30 September 2014 00:00
Orbit: 776 x 779 km, 86.4° (Epoch: 19 September)

Date Brightness Start Highest point End Pass type
(mag) Time Alt. Az. Time Alt. Az. Time Alt. Az.
20 Sep 7.8 22:21:49 17° N 22:21:49 17° N 22:23:01 10° N visible
21 Sep 7.6 21:48:16 16° NNE 21:48:16 16° NNE 21:49:20 10° NNE visible
21 Sep 8.5 23:28:43 10° NW 23:28:43 10° NW 23:28:49 10° NW visible
22 Sep 7.7 21:14:41 13° NNE 21:14:41 13° NNE 21:15:16 10° NNE visible
22 Sep 8.1 22:55:09 15° NNW 22:55:09 15° NNW 22:56:13 10° NNW visible
23 Sep 7.7 22:21:33 19° N 22:21:33 19° N 22:23:04 10° N visible
24 Sep 7.4 21:47:56 21° N 21:47:56 21° N 21:49:34 10° N visible
25 Sep 7.4 21:14:18 18° NNE 21:14:18 18° NNE 21:15:45 10° NNE visible
25 Sep 8.2 22:54:45 15° NW 22:54:45 15° NW 22:55:52 10° NNW visible
26 Sep 7.5 20:40:38 13° NE 20:40:38 13° NE 20:41:28 10° NE visible
26 Sep 7.7 22:21:05 21° NNW 22:21:05 21° NNW 22:22:59 10° NNW visible
27 Sep 7.1 21:47:23 27° N 21:47:23 27° N 21:49:42 10° N visible
28 Sep 6.9 21:13:39 27° NNE 21:13:39 27° NNE 21:16:05 10° NNE visible
28 Sep 8.3 22:54:06 13° NW 22:54:06 13° NW 22:55:10 10° NW visible
29 Sep 7.0 20:39:52 22° NE 20:39:52 22° NE 20:42:06 10° NNE visible
29 Sep 7.7 22:20:19 22° NW 22:20:19 22° NW 22:22:46 10° NNW visible
